Location: Alberta Star Party
(51.6612°N, 112.9089°W)
Time: 12:39:23
(UTC-06:00)

Amateur Radio Satellites - All Passes

Search period start: 27 July 2017 12:09
Search period end: 28 July 2017 12:09
Location: Alberta Star Party, 51.6612°N, 112.9089°W

Satellite Date Start Highest point End Downlink Frequencies (MHz)
Time Altitude Azimuth
EO-79 27 Jul 12:10:27 12:14:42 68° 72° (ENE) 12:18:57 145.935-145.965
SO-50 27 Jul 12:11:43 12:14:55 18° 14° (NNE) 12:18:06 436.795
Gurwin Techsat 1B 27 Jul 12:13:01 12:14:59 12° 47° (NE) 12:16:56 435.225
FO-29 27 Jul 12:24:49 12:29:21 16° 281° (W) 12:33:56 435.910
AO-7 27 Jul 12:37:55 12:42:25 16° 27° (NNE) 12:46:54 .
AO-85 27 Jul 12:39:40 12:42:41 21° 117° (ESE) 12:45:43 145.980
AIST 2D 27 Jul 12:41:44 12:44:39 25° 266° (W) 12:47:35 435.315
SPROUT 27 Jul 12:47:23 12:49:33 14° 87° (E) 12:51:41 437.525
NO-84 27 Jul 12:59:28 13:02:38 84° 338° (NNW) 13:06:07 435.350 FM
LO-87 27 Jul 12:59:48 13:03:25 83° 288° (WNW) 13:07:01 145.935 - 145.965
Oscar 19 27 Jul 13:01:51 13:06:24 33° 62° (ENE) 13:10:59 437.125/150
EO-88 27 Jul 13:05:35 13:07:39 15° 300° (WNW) 13:09:42 145.990 - 145.960
DUCHIFAT 1 27 Jul 13:15:42 13:19:36 35° 263° (W) 13:23:31 145.980
ESTCUBE 1 27 Jul 13:17:33 13:22:06 82° 103° (ESE) 13:26:39 437.505/2401.250
POLYITAN 1 27 Jul 13:22:46 13:26:21 26° 266° (W) 13:29:57 437.675
BEESAT 3 27 Jul 13:28:31 13:32:27 59° 127° (SE) 13:36:28 437.485
BUGSAT 1 27 Jul 13:33:08 13:37:21 70° 258° (WSW) 13:41:34 437.445
QB50P2 27 Jul 13:36:46 13:39:46 18° 270° (W) 13:42:47 145.880/145.840
50 SAT 27 Jul 13:39:02 13:40:50 13° 90° (E) 13:42:36 437.505
PCSat 27 Jul 13:40:08 13:45:36 70° 49° (NE) 13:51:00 145.827
NANOSAT C BR1 27 Jul 13:46:09 13:49:04 18° 270° (W) 13:51:59 145.865
EO-79 27 Jul 13:48:16 13:50:55 16° 271° (W) 13:53:33 145.935-145.965
Gurwin Techsat 1B 27 Jul 13:48:40 13:53:49 53° 67° (ENE) 13:59:00 435.225
DX 1 27 Jul 13:49:11 13:51:53 16° 89° (E) 13:54:33 434.975-435.025
VELOX 1 27 Jul 13:51:27 13:55:46 45° 99° (E) 14:00:03 145.980
SO-50 27 Jul 13:52:05 13:56:27 44° 38° (NE) 14:00:48 436.795
BEESAT 2 27 Jul 14:14:33 14:18:30 61° 127° (SE) 14:22:32 435.950
AO-85 27 Jul 14:18:53 14:22:46 57° 317° (NW) 14:26:40 145.980
SPROUT 27 Jul 14:21:43 14:26:01 80° 287° (WNW) 14:30:16 437.525
AO-7 27 Jul 14:25:26 14:33:01 40° 52° (NE) 14:40:37 .
UKube-1 27 Jul 14:25:34 14:29:05 23° 93° (E) 14:32:34 .
LO-87 27 Jul 14:35:40 14:36:13 10° 304° (NW) 14:36:45 145.935 - 145.965
NO-84 27 Jul 14:37:05 14:40:21 46° 359° (N) 14:43:54 435.350 FM
Oscar 19 27 Jul 14:40:46 14:45:37 44° 262° (W) 14:50:32 437.125/150
ESTCUBE 1 27 Jul 14:55:29 14:58:20 17° 304° (NW) 15:01:13 437.505/2401.250
ITAMSAT 1 27 Jul 14:59:12 15:03:51 33° 61° (ENE) 15:08:31 435.822/435.867
BEESAT 3 27 Jul 15:06:47 15:10:19 28° 327° (NNW) 15:13:53 437.485
50 SAT 27 Jul 15:10:30 15:13:53 54° 288° (WNW) 15:17:14 437.505
RS-15 27 Jul 15:19:03 15:29:13 33° 104° (ESE) 15:39:26 29.354- 29.394
PCSat 27 Jul 15:24:09 15:28:33 25° 250° (WSW) 15:32:55 145.827
DX 1 27 Jul 15:24:10 15:28:34 72° 289° (WNW) 15:32:56 434.975-435.025
BEESAT 27 Jul 15:26:29 15:28:45 13° 86° (E) 15:31:01 436.000
VELOX 1 27 Jul 15:28:17 15:32:02 27° 298° (WNW) 15:35:45 145.980
Gurwin Techsat 1B 27 Jul 15:29:30 15:34:03 28° 267° (W) 15:38:39 435.225
O/OREOS (USA 219) 27 Jul 15:30:43 15:34:47 35° 108° (ESE) 15:38:53 437.305
SO-50 27 Jul 15:32:40 15:36:53 39° 238° (WSW) 15:41:08 436.795
ITUPSAT 1 27 Jul 15:40:55 15:44:06 17° 89° (E) 15:47:16 437.325
BEESAT 2 27 Jul 15:53:03 15:56:34 28° 328° (NNW) 16:00:08 435.950
SPROUT 27 Jul 15:59:18 16:01:14 13° 306° (NW) 16:03:08 437.525
UKube-1 27 Jul 16:01:10 16:05:20 47° 292° (WNW) 16:09:29 .
AO-85 27 Jul 16:01:16 16:03:57 17° 340° (NNW) 16:06:40 145.980
MOZHAYETS 4 27 Jul 16:01:46 16:05:15 21° 91° (E) 16:08:44
DOVE 4 27 Jul 16:08:13 16:10:39 14° 50° (NE) 16:13:09 437.250
NO-84 27 Jul 16:14:35 16:18:06 74° 19° (NNE) 16:21:58 435.350 FM
AO-7 27 Jul 16:17:05 16:25:25 67° 254° (WSW) 16:33:48 .
HO-68 27 Jul 16:34:57 16:36:27 11° 29° (NNE) 16:37:56 435.675
ITAMSAT 1 27 Jul 16:38:11 16:43:12 46° 261° (W) 16:48:14 435.822/435.867
CUBESAT XI-V 27 Jul 16:44:40 16:46:58 13° 86° (E) 16:49:15 437.345
BEESAT 3 27 Jul 16:47:00 16:49:08 14° 351° (N) 16:51:15 437.485
DX 1 27 Jul 17:02:09 17:04:00 12° 307° (NW) 17:05:50 434.975-435.025
BEESAT 27 Jul 17:02:28 17:07:16 86° 111° (ESE) 17:12:01 436.000
CUTE-I 27 Jul 17:08:10 17:11:49 19° 53° (NE) 17:15:28 437.470
O/OREOS (USA 219) 27 Jul 17:10:04 17:14:12 36° 309° (NW) 17:18:22 437.305
LilacSat-2 27 Jul 17:12:07 17:13:51 13° 58° (ENE) 17:15:34 437.200
ITUPSAT 1 27 Jul 17:17:42 17:22:28 73° 289° (WNW) 17:27:12 437.325
XW-2F 27 Jul 17:20:38 17:22:35 14° 59° (ENE) 17:24:32 145.980 - 146.000
RS-15 27 Jul 17:27:56 17:40:16 87° 129° (SE) 17:52:40 29.354- 29.394
BEESAT 2 27 Jul 17:33:26 17:35:34 14° 351° (N) 17:37:43 435.950
MOZHAYETS 4 27 Jul 17:38:17 17:42:45 56° 290° (WNW) 17:47:13
DOVE 4 27 Jul 17:42:20 17:47:19 62° 71° (ENE) 17:52:31 437.250
AO-85 27 Jul 17:43:56 17:45:53 13° 5° (N) 17:47:51 145.980
XW-2D 27 Jul 17:50:01 17:53:11 27° 66° (ENE) 17:56:23 145.860 - 145.880
NO-84 27 Jul 17:52:05 17:55:27 33° 218° (SW) 17:59:03 435.350 FM
KKS-1 27 Jul 17:58:30 18:02:33 32° 96° (E) 18:06:32 437.445
XW-2B 27 Jul 17:59:57 18:03:19 32° 67° (ENE) 18:06:42 145.730 - 145.750
CUTE 1.7 + AOD 2 27 Jul 18:09:14 18:10:42 12° 54° (NE) 18:12:11 437.475
NUDT-PHONESAT 27 Jul 18:13:26 18:16:47 34° 68° (ENE) 18:20:08 437.300
AO-7 27 Jul 18:14:52 18:19:51 17° 276° (W) 18:24:53 .
HO-68 27 Jul 18:15:55 18:22:04 32° 53° (NE) 18:28:14 435.675
XW-2C 27 Jul 18:17:08 18:20:46 49° 71° (ENE) 18:24:24 145.795 - 145.815
STARS 27 Jul 18:20:18 18:23:54 24° 93° (E) 18:27:28 437.465
CUBESAT XI-V 27 Jul 18:20:19 18:25:02 89° 107° (ESE) 18:29:44 437.345
YUBILEINY 27 Jul 18:21:43 18:29:12 32° 81° (E) 18:36:38 435.215
BEESAT 3 27 Jul 18:25:51 18:28:15 15° 15° (NNE) 18:30:39 437.485
KAITUO 1B 27 Jul 18:31:53 18:35:30 55° 71° (ENE) 18:39:08 145.475/437.950
BEESAT 27 Jul 18:41:21 18:44:26 17° 305° (NW) 18:47:31 436.000
LilacSat-2 27 Jul 18:43:49 18:47:35 81° 257° (WSW) 18:51:23 437.200
CUTE-I 27 Jul 18:45:46 18:51:10 87° 73° (ENE) 18:56:36 437.470
XW-2A 27 Jul 18:47:30 18:48:53 12° 59° (ENE) 18:50:15 145.665 - 145.685
XW-2F 27 Jul 18:52:30 18:56:13 72° 256° (WSW) 18:59:58 145.980 - 146.000
ITUPSAT 1 27 Jul 18:57:06 18:59:31 14° 308° (NW) 19:01:55 437.325
UWE-3 27 Jul 19:09:21 19:12:06 16° 58° (ENE) 19:14:49 435.000/436.395/437.385
BEESAT 2 27 Jul 19:12:24 19:14:53 15° 15° (NNE) 19:17:23 435.950
ZACube-1 27 Jul 19:17:45 19:19:18 12° 54° (NE) 19:20:49 437.345
MOZHAYETS 4 27 Jul 19:18:18 19:18:58 10° 310° (NW) 19:19:38
DOVE 4 27 Jul 19:21:25 19:25:25 23° 271° (W) 19:29:35 437.250
XW-2D 27 Jul 19:23:58 19:27:20 31° 264° (W) 19:30:42 145.860 - 145.880
AO-85 27 Jul 19:24:15 19:27:37 24° 29° (NNE) 19:31:07 145.980
XW-2B 27 Jul 19:34:24 19:37:33 25° 266° (W) 19:40:43 145.730 - 145.750
KKS-1 27 Jul 19:35:01 19:39:08 36° 295° (WNW) 19:43:13 437.445
Oscar 11 27 Jul 19:38:04 19:39:59 13° 55° (NE) 19:41:54 .
CUTE 1.7 + AOD 2 27 Jul 19:41:37 19:45:48 74° 74° (ENE) 19:50:01 437.475
RS-15 27 Jul 19:42:15 19:54:13 51° 339° (NNW) 20:06:04 29.354- 29.394
NUDT-PHONESAT 27 Jul 19:47:47 19:50:46 23° 267° (W) 19:53:46 437.300
SEEDS 27 Jul 19:48:08 19:52:12 57° 71° (ENE) 19:56:19 437.485
CUBEBUG 2 27 Jul 19:51:49 19:56:21 54° 71° (ENE) 20:00:46 437.445
XW-2C 27 Jul 19:52:44 19:55:14 17° 269° (W) 19:57:46 145.795 - 145.815
AO-73 27 Jul 19:54:04 19:57:20 21° 61° (ENE) 20:00:32 145.935
STARS 27 Jul 19:56:13 20:00:28 46° 292° (WNW) 20:04:40 437.465
CUBESAT XI-V 27 Jul 19:58:55 20:01:47 16° 304° (NW) 20:04:39 437.345
HO-68 27 Jul 20:02:09 20:09:19 73° 255° (WSW) 20:16:31 435.675
BEESAT 3 27 Jul 20:03:06 20:06:54 37° 37° (NE) 20:10:38 437.485
KAITUO 1B 27 Jul 20:07:40 20:09:51 15° 270° (W) 20:12:02 145.475/437.950
YUBILEINY 27 Jul 20:16:28 20:25:19 73° 284° (WNW) 20:34:10 435.215
XW-2A 27 Jul 20:17:47 20:21:09 68° 258° (WSW) 20:24:31 145.665 - 145.685
AAUSAT CUBESAT 2 27 Jul 20:22:37 20:26:40 62° 72° (ENE) 20:30:47 437.432
CUTE-I 27 Jul 20:28:29 20:31:57 17° 273° (W) 20:35:24 437.470
STRAND 1 27 Jul 20:43:11 20:48:06 44° 98° (E) 20:52:58 437.568
UWE-3 27 Jul 20:43:31 20:48:02 82° 254° (WSW) 20:52:28 435.000/436.395/437.385
BEESAT 2 27 Jul 20:49:49 20:53:41 39° 38° (NE) 20:57:30 435.950
ZACube-1 27 Jul 20:50:28 20:54:50 71° 74° (ENE) 20:59:08 437.345
Tancredo 1 27 Jul 20:52:52 20:55:30 30° 152° (SSE) 20:58:07 437.200
DELFI C3 27 Jul 20:58:44 21:01:31 19° 61° (ENE) 21:04:19 145.870
AO-85 27 Jul 21:04:18 21:08:26 80° 229° (SW) 21:12:50 145.980
Oscar 11 27 Jul 21:11:07 21:15:25 79° 73° (ENE) 21:19:44 .
ISS 27 Jul 21:13:41 21:16:19 23° 146° (SSE) 21:18:57 437.550
CUTE 1.7 + AOD 2 27 Jul 21:19:52 21:22:09 14° 273° (W) 21:24:28 437.475
SEEDS 27 Jul 21:25:23 21:28:16 18° 270° (W) 21:31:09 437.485
AO-73 27 Jul 21:28:57 21:33:15 56° 260° (W) 21:37:28 145.935
CUBEBUG 2 27 Jul 21:29:39 21:33:15 22° 269° (W) 21:36:49 437.445
BEESAT 3 27 Jul 21:40:45 21:44:30 38° 238° (WSW) 21:48:11 437.485
FO-29 27 Jul 21:40:57 21:45:44 19° 81° (E) 21:50:11 435.910
nSIGHT-1 27 Jul 21:52:24 21:55:27 39° 155° (SSE) 21:58:30 .
HO-68 27 Jul 21:54:01 21:58:20 17° 276° (W) 22:02:41 435.675
RS-15 27 Jul 21:58:04 22:09:52 47° 12° (NNE) 22:21:18 29.354- 29.394
AAUSAT CUBESAT 2 27 Jul 21:59:55 22:02:33 16° 271° (W) 22:05:11 437.432
LO-87 27 Jul 22:10:08 22:11:15 11° 57° (ENE) 22:12:23 145.935 - 145.965
EO-88 27 Jul 22:13:15 22:16:49 61° 73° (ENE) 22:20:27 145.990 - 145.960
YUBILEINY 27 Jul 22:17:27 22:23:57 22° 310° (NW) 22:30:29 435.215
STRAND 1 27 Jul 22:22:37 22:27:11 33° 298° (WNW) 22:31:42 437.568
UWE-3 27 Jul 22:23:42 22:25:11 11° 275° (W) 22:26:40 435.000/436.395/437.385
BEESAT 2 27 Jul 22:27:40 22:31:26 37° 238° (WSW) 22:35:10 435.950
Tancredo 1 27 Jul 22:27:44 22:30:40 83° 173° (S) 22:33:37 437.200
ZACube-1 27 Jul 22:28:56 22:31:36 16° 272° (W) 22:34:14 437.345
DELFI C3 27 Jul 22:32:03 22:35:55 55° 259° (W) 22:39:52 145.870
PRISM 27 Jul 22:40:53 22:43:37 17° 90° (E) 22:46:20 437.425
AO-85 27 Jul 22:46:17 22:48:14 13° 248° (WSW) 22:50:15 145.980
ESTCUBE 1 27 Jul 22:46:43 22:50:08 22° 59° (ENE) 22:53:34 437.505/2401.250
TIGRISAT 27 Jul 22:47:49 22:51:15 22° 92° (E) 22:54:37 435.000
ISS 27 Jul 22:49:12 22:52:27 71° 166° (SSE) 22:55:42 437.550
Oscar 11 27 Jul 22:49:53 22:52:08 14° 273° (W) 22:54:22 .
M-CUBED/EXP-1 PRIME 27 Jul 23:18:35 23:21:21 15° 94° (E) 23:24:07 437.505
VELOX 1 27 Jul 23:20:04 23:22:12 13° 53° (NE) 23:24:20 145.980
FO-29 27 Jul 23:24:46 23:32:04 83° 105° (ESE) 23:38:28 435.910
nSIGHT-1 27 Jul 23:28:28 23:31:43 88° 155° (SSE) 23:34:57 .
LO-87 27 Jul 23:40:26 23:44:05 89° 73° (ENE) 23:47:46 145.935 - 145.965
UNISAT 6 27 Jul 23:40:32 23:44:54 75° 103° (ESE) 23:49:10 437.425
SPROUT 27 Jul 23:45:16 23:48:33 22° 61° (ENE) 23:51:51 437.525
EO-88 27 Jul 23:49:05 23:50:54 13° 271° (W) 23:52:44 145.990 - 145.960
O/OREOS (USA 219) 27 Jul 23:55:49 23:59:47 30° 49° (NE) 00:03:46 437.305
AIST 2D 28 Jul 00:01:21 00:03:43 17° 91° (E) 00:06:05 435.315
Tancredo 1 28 Jul 00:03:06 00:06:03 78° 191° (S) 00:09:00 437.200
RS-15 28 Jul 00:12:05 00:24:26 78° 43° (NE) 00:36:10 29.354- 29.394
PRISM 28 Jul 00:15:09 00:19:17 62° 289° (WNW) 00:23:25 437.425
50 SAT 28 Jul 00:15:51 00:17:34 13° 59° (ENE) 00:19:18 437.505
ESTCUBE 1 28 Jul 00:22:10 00:26:35 58° 259° (W) 00:31:03 437.505/2401.250
TIGRISAT 28 Jul 00:24:02 00:28:12 47° 291° (WNW) 00:32:17 435.000
ISS 28 Jul 00:25:40 00:28:55 89° 199° (SSW) 00:32:12 437.550
DX 1 28 Jul 00:49:16 00:52:59 28° 62° (ENE) 00:56:43 434.975-435.025
M-CUBED/EXP-1 PRIME 28 Jul 00:51:39 00:56:17 86° 290° (WNW) 01:00:58 437.505
VELOX 1 28 Jul 00:53:29 00:57:55 77° 72° (ENE) 01:02:24 145.980
DUCHIFAT 1 28 Jul 00:54:06 00:57:34 24° 93° (E) 01:01:00 145.980
POLYITAN 1 28 Jul 01:01:18 01:05:11 34° 97° (E) 01:09:01 437.675
nSIGHT-1 28 Jul 01:04:52 01:08:06 72° 195° (SSW) 01:11:20 .
FO-29 28 Jul 01:10:25 01:16:19 27° 308° (NW) 01:21:42 435.910
BUGSAT 1 28 Jul 01:11:19 01:12:50 12° 86° (E) 01:14:22 437.445
QB50P2 28 Jul 01:14:26 01:18:34 50° 100° (E) 01:22:39 145.880/145.840
UNISAT 6 28 Jul 01:18:19 01:21:05 17° 303° (WNW) 01:23:49 437.425
SPROUT 28 Jul 01:19:56 01:24:09 53° 260° (W) 01:28:23 437.525
NANOSAT C BR1 28 Jul 01:23:08 01:27:16 51° 100° (E) 01:31:20 145.865
UKube-1 28 Jul 01:24:43 01:28:45 39° 66° (ENE) 01:32:48 .
EO-79 28 Jul 01:25:15 01:29:26 59° 101° (E) 01:33:35 145.935-145.965
AIST 2D 28 Jul 01:33:48 01:37:09 42° 289° (WNW) 01:40:28 435.315
O/OREOS (USA 219) 28 Jul 01:35:05 01:39:22 45° 249° (WSW) 01:43:40 437.305
Tancredo 1 28 Jul 01:38:39 01:41:11 26° 210° (SSW) 01:43:44 437.200
50 SAT 28 Jul 01:46:29 01:49:52 63° 258° (WSW) 01:53:17 437.505
PRISM 28 Jul 01:53:07 01:53:45 10° 308° (NW) 01:54:23 437.425
Gurwin Techsat 1B 28 Jul 02:00:51 02:03:24 13° 85° (E) 02:05:57 435.225
ISS 28 Jul 02:02:10 02:05:15 40° 205° (SSW) 02:08:20 437.550
DX 1 28 Jul 02:24:52 02:29:01 42° 261° (W) 02:33:13 434.975-435.025
RS-15 28 Jul 02:25:11 02:36:09 43° 250° (WSW) 02:46:38 29.354- 29.394
M-CUBED/EXP-1 PRIME 28 Jul 02:27:06 02:30:06 18° 310° (NW) 02:33:08 437.505
DUCHIFAT 1 28 Jul 02:29:26 02:33:24 41° 292° (WNW) 02:37:18 145.980
VELOX 1 28 Jul 02:32:21 02:34:56 15° 272° (W) 02:37:31 145.980
BEESAT 28 Jul 02:37:09 02:41:16 29° 61° (ENE) 02:45:22 436.000
POLYITAN 1 28 Jul 02:37:13 02:40:54 30° 295° (WNW) 02:44:34 437.675
nSIGHT-1 28 Jul 02:41:32 02:44:10 23° 213° (SSW) 02:46:48 .
BUGSAT 1 28 Jul 02:44:42 02:48:50 85° 285° (WNW) 02:52:53 437.445
Oscar 19 28 Jul 02:46:18 02:51:15 44° 98° (E) 02:56:11 437.125/150
QB50P2 28 Jul 02:50:48 02:54:04 22° 299° (WNW) 02:57:20 145.880/145.840
ITUPSAT 1 28 Jul 02:52:18 02:56:41 37° 65° (ENE) 03:01:05 437.325
NANOSAT C BR1 28 Jul 02:59:27 03:02:41 22° 299° (WNW) 03:05:53 145.865
UKube-1 28 Jul 03:01:10 03:04:53 28° 265° (W) 03:08:38 .
EO-79 28 Jul 03:01:48 03:04:50 20° 301° (WNW) 03:07:51 145.935-145.965
MOZHAYETS 4 28 Jul 03:08:26 03:12:39 37° 66° (ENE) 03:16:51
KKS-1 28 Jul 03:29:06 03:30:03 11° 50° (NE) 03:30:59 437.445
Gurwin Techsat 1B 28 Jul 03:38:54 03:44:16 77° 104° (ESE) 03:49:35 435.225
ISS 28 Jul 03:40:53 03:41:03 10° 223° (SW) 03:41:14 437.550
CUBESAT XI-V 28 Jul 03:52:33 03:56:15 25° 61° (ENE) 03:59:59 437.345
AO-7 28 Jul 04:12:44 04:20:00 31° 93° (E) 04:27:11 .
BEESAT 28 Jul 04:14:18 04:18:52 45° 261° (W) 04:23:29 436.000
BUGSAT 1 28 Jul 04:21:41 04:23:32 13° 305° (NW) 04:25:22 437.445
YUBILEINY 28 Jul 04:23:34 04:30:18 23° 52° (NE) 04:36:58 435.215
Oscar 19 28 Jul 04:25:52 04:30:29 34° 298° (WNW) 04:35:06 437.125/150
PCSat 28 Jul 04:28:46 04:32:31 19° 107° (ESE) 04:36:16 145.827
ITUPSAT 1 28 Jul 04:30:12 04:34:33 34° 264° (W) 04:38:56 437.325
ITAMSAT 1 28 Jul 04:45:12 04:50:09 42° 98° (E) 04:55:03 435.822/435.867
MOZHAYETS 4 28 Jul 04:45:47 04:49:52 31° 265° (W) 04:53:58
KKS-1 28 Jul 05:01:17 05:05:40 57° 70° (ENE) 05:10:07 437.445
Gurwin Techsat 1B 28 Jul 05:19:41 05:23:41 22° 304° (NW) 05:27:40 435.225
STARS 28 Jul 05:21:32 05:25:43 42° 67° (ENE) 05:29:55 437.465
CUBESAT XI-V 28 Jul 05:28:52 05:33:21 52° 260° (W) 05:37:53 437.345
DOVE 4 28 Jul 05:37:22 05:39:59 14° 83° (E) 05:42:33 437.250
SO-50 28 Jul 05:52:48 05:55:52 18° 113° (ESE) 05:58:55 436.795
AO-7 28 Jul 06:05:10 06:13:33 76° 296° (WNW) 06:21:52 .
PCSat 28 Jul 06:09:47 06:15:14 88° 307° (NW) 06:20:43 145.827
YUBILEINY 28 Jul 06:19:57 06:28:47 78° 78° (ENE) 06:37:31 435.215
ITAMSAT 1 28 Jul 06:24:50 06:29:33 36° 298° (WNW) 06:34:14 435.822/435.867
STRAND 1 28 Jul 06:27:06 06:30:51 21° 56° (NE) 06:34:37 437.568
KKS-1 28 Jul 06:39:15 06:42:35 20° 269° (W) 06:45:57 437.445
XW-2D 28 Jul 06:51:06 06:53:50 19° 92° (E) 06:56:34 145.860 - 145.880
CUTE-I 28 Jul 06:57:50 07:02:05 23° 91° (E) 07:06:17 437.470
STARS 28 Jul 06:58:26 07:02:13 27° 266° (W) 07:06:00 437.465
XW-2B 28 Jul 07:01:03 07:04:07 23° 93° (E) 07:07:08 145.730 - 145.750
NUDT-PHONESAT 28 Jul 07:12:09 07:15:06 22° 93° (E) 07:18:04 437.300
DOVE 4 28 Jul 07:13:14 07:18:34 79° 103° (ESE) 07:23:40 437.250
XW-2C 28 Jul 07:18:19 07:21:47 34° 97° (E) 07:25:15 145.795 - 145.815
HO-68 28 Jul 07:25:04 07:29:36 17° 85° (E) 07:34:07 435.675
SO-50 28 Jul 07:31:15 07:35:47 82° 315° (NW) 07:40:19 436.795
KAITUO 1B 28 Jul 07:31:28 07:34:58 36° 97° (E) 07:38:27 145.475/437.950
LilacSat-2 28 Jul 07:45:40 07:49:28 72° 102° (ESE) 07:53:16 437.200
XW-2F 28 Jul 07:53:05 07:56:52 78° 103° (ESE) 08:00:38 145.980 - 146.000
PCSat 28 Jul 07:54:45 07:59:21 27° 330° (NNW) 08:03:59 145.827
FO-29 28 Jul 07:58:23 08:04:04 23° 48° (NE) 08:09:40 435.910
AO-7 28 Jul 07:58:39 08:05:10 26° 318° (NW) 08:11:40 .
STRAND 1 28 Jul 08:04:21 08:09:30 78° 255° (WSW) 08:14:41 437.568
YUBILEINY 28 Jul 08:17:36 08:24:45 29° 281° (W) 08:31:51 435.215
XW-2D 28 Jul 08:24:39 08:28:15 44° 290° (WNW) 08:31:52 145.860 - 145.880
UWE-3 28 Jul 08:29:07 08:31:12 13° 87° (E) 08:33:16 435.000/436.395/437.385
XW-2B 28 Jul 08:34:55 08:38:24 36° 292° (WNW) 08:41:54 145.730 - 145.750
CUTE-I 28 Jul 08:37:16 08:42:36 65° 291° (WNW) 08:47:53 437.470
NUDT-PHONESAT 28 Jul 08:45:43 08:49:06 35° 292° (WNW) 08:52:29 437.300
DOVE 4 28 Jul 08:51:45 08:55:38 21° 303° (WNW) 08:59:27 437.250
XW-2C 28 Jul 08:52:45 08:55:52 25° 295° (WNW) 08:58:59 145.795 - 145.815
Oscar 11 28 Jul 08:55:31 08:56:13 10° 84° (E) 08:56:53 .
CUTE 1.7 + AOD 2 28 Jul 08:56:34 09:00:49 71° 102° (ESE) 09:05:05 437.475
SEEDS 28 Jul 09:01:48 09:05:57 53° 100° (E) 09:10:06 437.485
KAITUO 1B 28 Jul 09:05:50 09:08:49 23° 296° (WNW) 09:11:48 145.475/437.950
XW-2A 28 Jul 09:06:47 09:10:05 55° 101° (E) 09:13:22 145.665 - 145.685
UNISAT 6 28 Jul 09:09:05 09:12:21 20° 59° (ENE) 09:15:36 437.425
HO-68 28 Jul 09:11:22 09:18:34 76° 106° (ESE) 09:25:44 435.675
AO-73 28 Jul 09:12:00 09:14:56 18° 90° (E) 09:17:49 145.935
SO-50 28 Jul 09:13:10 09:16:52 24° 335° (NNW) 09:20:36 436.795
CUBEBUG 2 28 Jul 09:13:41 09:17:54 56° 100° (E) 09:21:59 437.445
LilacSat-2 28 Jul 09:21:13 09:23:16 14° 301° (WNW) 09:25:19 437.200
XW-2F 28 Jul 09:28:41 09:30:29 13° 302° (WNW) 09:32:16 145.980 - 146.000
AAUSAT CUBESAT 2 28 Jul 09:34:24 09:38:32 55° 101° (E) 09:42:39 437.432
PRISM 28 Jul 09:34:51 09:38:14 25° 62° (ENE) 09:41:39 437.425
FO-29 28 Jul 09:40:08 09:47:53 70° 69° (ENE) 09:55:38 435.910
PCSat 28 Jul 09:41:18 09:44:37 16° 356° (N) 09:47:56 145.827
STRAND 1 28 Jul 09:47:11 09:49:33 13° 275° (W) 09:51:57 437.568
TIGRISAT 28 Jul 09:51:01 09:55:17 39° 67° (ENE) 09:59:28 435.000
AO-7 28 Jul 09:52:27 09:55:07 12° 344° (NNW) 09:57:48 .
UWE-3 28 Jul 10:04:02 10:08:15 76° 286° (WNW) 10:12:23 435.000/436.395/437.385
DELFI C3 28 Jul 10:04:44 10:06:49 14° 88° (E) 10:08:53 145.870
M-CUBED/EXP-1 PRIME 28 Jul 10:08:32 10:12:08 37° 59° (ENE) 10:16:02 437.505
ZACube-1 28 Jul 10:09:22 10:13:33 72° 102° (ESE) 10:17:40 437.345
CUTE-I 28 Jul 10:18:53 10:21:41 15° 311° (NW) 10:24:29 437.470
Oscar 11 28 Jul 10:28:46 10:33:06 78° 102° (ESE) 10:37:26 .
CUTE 1.7 + AOD 2 28 Jul 10:33:25 10:36:11 17° 301° (WNW) 10:38:58 437.475
SEEDS 28 Jul 10:38:08 10:41:20 21° 299° (WNW) 10:44:33 437.485
QB50P2 28 Jul 10:39:10 10:40:54 12° 54° (NE) 10:42:37 145.880/145.840
XW-2A 28 Jul 10:40:40 10:42:26 14° 300° (WNW) 10:44:13 145.665 - 145.685
AIST 2D 28 Jul 10:41:12 10:43:20 16° 62° (ENE) 10:45:30 435.315
UNISAT 6 28 Jul 10:44:04 10:48:39 68° 258° (WSW) 10:53:10 437.425
NANOSAT C BR1 28 Jul 10:47:24 10:49:08 12° 54° (NE) 10:50:51 145.865
AO-73 28 Jul 10:47:27 10:51:30 54° 289° (WNW) 10:55:32 145.935
EO-79 28 Jul 10:49:19 10:51:30 14° 55° (NE) 10:53:40 145.935-145.965
NO-84 28 Jul 10:50:28 10:52:33 17° 134° (SE) 10:54:42 435.350 FM
CUBEBUG 2 28 Jul 10:51:02 10:54:09 20° 300° (WNW) 10:57:14 437.445
SO-50 28 Jul 10:56:00 10:58:49 16° 360° (N) 11:01:39 436.795
HO-68 28 Jul 10:59:42 11:05:46 31° 307° (NW) 11:11:49 435.675
PRISM 28 Jul 11:09:26 11:13:19 42° 261° (W) 11:17:18 437.425
EO-88 28 Jul 11:10:12 11:13:37 37° 98° (E) 11:17:01 145.990 - 145.960
AAUSAT CUBESAT 2 28 Jul 11:10:34 11:13:39 20° 299° (WNW) 11:16:44 437.432
PCSat 28 Jul 11:25:58 11:30:04 21° 22° (NNE) 11:34:09 145.827
FO-29 28 Jul 11:26:28 11:33:24 34° 269° (W) 11:40:23 435.910
TIGRISAT 28 Jul 11:28:00 11:32:03 30° 265° (W) 11:36:03 435.000
DELFI C3 28 Jul 11:38:03 11:42:04 72° 286° (WNW) 11:46:04 145.870
AO-7 28 Jul 11:42:05 11:44:17 11° 12° (NNE) 11:46:29 .
UWE-3 28 Jul 11:42:26 11:43:58 12° 306° (NW) 11:45:29 435.000/436.395/437.385
M-CUBED/EXP-1 PRIME 28 Jul 11:43:19 11:46:39 28° 260° (W) 11:50:15 437.505
ZACube-1 28 Jul 11:46:46 11:49:21 16° 302° (WNW) 11:51:55 437.345
DUCHIFAT 1 28 Jul 11:50:34 11:54:28 36° 66° (ENE) 11:58:21 145.980
POLYITAN 1 28 Jul 11:58:32 12:02:40 52° 70° (ENE) 12:06:49 437.675
